Regional Weather Roundup
Issued by NWS

Home | Current Version | Previous Version | Graphics & Text | Print | Product List | Glossary On
Versions: 1 2 3 4 5 6 7 8 9 10 11 12 13 14 15 16 17 18 19 20 21 22 23 24 25 26 27 28 29 30 31 32 33 34 35 36 37 38 39 40 41 42 43 44 45 46 47 48 49 50
000
ASUS43 KTOP 291159
RWRKS

WEATHER ROUNDUP FOR KANSAS
NATIONAL WEATHER SERVICE GOODLAND KS
700 AM CDT MON MAY 29 2017

NOTE:  "FAIR" INDICATES FEW OR NO CLOUDS BELOW 12,000 FEET WITH NO
SIGNIFICANT WEATHER AND/OR OBSTRUCTIONS TO VISIBILITY.

KSZ001>006-013>018-027>032-041>047-291300-
NORTHWEST KANSAS

CITY           SKY/WX    TMP DP  RH WIND       PRES   REMARKS
GOODLAND       CLEAR     49  46  90 NW10      30.16R
6HR MIN TEMP:  47; 6HR MAX TEMP:  55;

HAYS           CLEAR     54  49  83 NW9       30.08R
HILL CITY      CLEAR     51  48  89 W6        30.09S
6HR MIN TEMP:  51; 6HR MAX TEMP:  59;

RUSSELL        CLEAR     55  50  83 NW8       30.05R
6HR MIN TEMP:  53; 6HR MAX TEMP:  60;

$$

KSZ061>065-074>080-084>089-291300-
SOUTHWEST KANSAS

CITY           SKY/WX    TMP DP  RH WIND       PRES   REMARKS
DODGE CITY     CLEAR     52  45  77 NW9       30.10R
6HR MIN TEMP:  50; 6HR MAX TEMP:  60;

ELKHART          N/A     52  39  61 MISG        N/A
GARDEN CITY    CLEAR     51  44  77 NW9       30.13R
6HR MIN TEMP:  46; 6HR MAX TEMP:  56;

GREAT BEND     PTCLDY    54  50  86 NW7       30.06S
LIBERAL        CLEAR     50  47  89 NW8       30.15R
$$

KSZ066>073-081>083-090>101-291300-
SOUTHEAST KANSAS

CITY           SKY/WX    TMP DP  RH WIND       PRES   REMARKS
CHANUTE        CLEAR     56  52  86 CALM      29.97S
6HR MIN TEMP:  52; 6HR MAX TEMP:  63;

COFFEYVILLE    CLEAR     57  56  96 S3        29.99R
6HR MIN TEMP:  55; 6HR MAX TEMP:  62;

HUTCHINSON     PTCLDY    57  49  74 NW6       30.02S
6HR MIN TEMP:  51; 6HR MAX TEMP:  59;

MEDICINE LODGE   N/A     53  46  77 N7        30.04R
NEWTON         PTCLDY    60  49  66 NW6       30.03R
PARSONS        CLEAR     54  52  93 CALM      29.99R
6HR MIN TEMP:  52; 6HR MAX TEMP:  56;

WICHITA INTL   PTCLDY    59  49  69 NW12      30.02R
6HR MIN TEMP:  55; 6HR MAX TEMP:  60;

WICHITA JABRA  CLEAR     62  46  55 NW10      30.01R
6HR MIN TEMP:  58; 6HR MAX TEMP:  65;

WINFIELD       CLEAR     55  50  83 CALM      30.02R
6HR MIN TEMP:  53; 6HR MAX TEMP:  62;

$$

KSZ007>012-019>026-033>040-048>060-102>105-291300-
NORTHEAST KANSAS

CITY           SKY/WX    TMP DP  RH WIND       PRES   REMARKS
CONCORDIA      CLEAR     54  50  86 W8        30.03R
6HR MIN TEMP:  52; 6HR MAX TEMP:  61;

EMPORIA        CLEAR     58  50  75 W7        29.98R
6HR MIN TEMP:  56; 6HR MAX TEMP:  63;

LAWRENCE       SUNNY     57  55  93 CALM      29.96R
6HR MIN TEMP:  52; 6HR MAX TEMP:  57;

MANHATTAN      CLEAR     57  53  86 CALM      29.99R
6HR MIN TEMP:  54; 6HR MAX TEMP:  60;

OLATHE IND     CLOUDY    60  53  77 W8        29.96R
6HR MIN TEMP:  54; 6HR MAX TEMP:  61;

OLATHE EXE     CLOUDY    59  53  80 SW10      29.95R
6HR MIN TEMP:  54; 6HR MAX TEMP:  60;

SALINA         CLEAR     60  52  74 NW9       30.02S
6HR MIN TEMP:  55; 6HR MAX TEMP:  61;

TOPEKA BILLARD CLEAR     60  54  80 W9        29.96R
6HR MIN TEMP:  55; 6HR MAX TEMP:  61;

TOPEKA FORBES  CLEAR     63  53  70 NW13      29.96R
6HR MIN TEMP:  55; 6HR MAX TEMP:  63;

$$




USA.gov is the U.S. government's official web portal to all federal, state and local government web resources and services.